Weather History for Rensselaer, IN

Change the Weather History Date:

Sunday, March 10, 2013

  Actual Average (KVPZ) Record (KVPZ)
Temperature  
Mean Temperature 48 °F 36 °F  
Max Temperature 60 °F 44 °F 67 °F (1902)
Min Temperature 35 °F 27 °F 2 °F (1996)
Degree Days  
Heating Degree Days 18 29  
Month to date heating degree days 311  
Since 1 July heating degree days 5043  
Cooling Degree Days 0 0  
Month to date cooling degree days 0  
Year to date cooling degree days 0  
Moisture  
Dew Point 42 °F    
Average Humidity 75    
Maximum Humidity 100    
Minimum Humidity 55    
Precipitation  
Precipitation 0.01 in 0.07 in 0.78 in (1943)
Month to date precipitation 0.75  
Year to date precipitation 3.92  
Sea Level Pressure  
Sea Level Pressure 29.78 in    
Wind  
Wind Speed 9 mph (SE)    
Max Wind Speed 24 mph    
Max Gust Speed 34 mph    
Visibility 10 miles    
Events Rain    
T = Trace of Precipitation, MM = Missing Value Source: NWS Daily Summary

Daily Weather History Graph

Daily Weather History Graph

Search for Another Location

Airport:

Trip Planner

Search our weather history database for the weather conditions in past years. The results will help you decide how hot, cold, wet, or windy it might be!

Date:

Astronomy

Mar. 10, 2013 Rise Set
Actual Time 7:08 AM CDT 6:50 PM CDT
Civil Twilight 6:40 AM CDT 7:17 PM CDT
Nautical Twilight 6:09 AM CDT 7:49 PM CDT
Astronomical Twilight 5:36 AM CDT 8:21 PM CDT
Moon 6:08 AM CDT (3/10) 5:57 PM CDT (3/10)
Length of Visible Light 12h 36m
Length of Day
11h 42m
Waning Crescent, 2% of the Moon is Illuminated
Mar 10
Waning Crescent
Mar 11
New
Mar 19
First Quarter
Mar 27
Full
Apr 2
Last Quarter

Hourly Weather History & Observations

Time (CDT) Temp. Windchill Dew Point Humidity Pressure Visibility Wind Dir Wind Speed Gust Speed Precip Events Conditions
12:15 AM 42.8 °F 38.0 °F 32.0 °F 66% 29.88 in 10.0 mi SE 8.1 mph - N/A   Scattered Clouds
12:35 AM 42.8 °F 38.6 °F 32.0 °F 66% 29.88 in 10.0 mi ESE 6.9 mph - N/A   Scattered Clouds
12:55 AM 42.8 °F 38.6 °F 33.8 °F 70% 29.87 in 10.0 mi ESE 6.9 mph - N/A   Scattered Clouds
1:15 AM 42.8 °F 40.1 °F 33.8 °F 70% 29.87 in 10.0 mi ESE 4.6 mph - N/A   Mostly Cloudy
1:35 AM 42.8 °F 39.3 °F 33.8 °F 70% 29.86 in 10.0 mi ESE 5.8 mph - N/A   Mostly Cloudy
1:55 AM 42.8 °F 38.6 °F 33.8 °F 70% 29.85 in 10.0 mi ESE 6.9 mph - N/A   Mostly Cloudy
3:15 AM 42.8 °F 39.3 °F 33.8 °F 70% 29.84 in 10.0 mi SE 5.8 mph - N/A   Mostly Cloudy
4:15 AM 44.6 °F - 33.8 °F 66% 29.84 in 10.0 mi Calm Calm - N/A   Overcast
4:35 AM 37.4 °F 34.9 °F 33.8 °F 87% 29.86 in 10.0 mi North 3.5 mph - N/A   Mostly Cloudy
4:55 AM 39.2 °F 35.9 °F 33.8 °F 81% 29.86 in 10.0 mi NE 4.6 mph - N/A   Drizzle
5:15 AM 37.4 °F 33.8 °F 33.8 °F 87% 29.87 in 10.0 mi ENE 4.6 mph - N/A Rain Light Rain
5:35 AM 37.4 °F 32.1 °F 33.8 °F 87% 29.87 in 10.0 mi NE 6.9 mph - N/A   Scattered Clouds
5:55 AM 35.6 °F 31.7 °F 33.8 °F 93% 29.87 in 10.0 mi ENE 4.6 mph - N/A   Mostly Cloudy
6:15 AM 37.4 °F 33.8 °F 33.8 °F 87% 29.87 in 10.0 mi NE 4.6 mph - N/A   Overcast
6:35 AM 37.4 °F 34.9 °F 33.8 °F 87% 29.86 in 10.0 mi ENE 3.5 mph - N/A   Mostly Cloudy
7:15 AM 37.4 °F 34.9 °F 33.8 °F 87% 29.86 in 10.0 mi East 3.5 mph - N/A   Mostly Cloudy
7:35 AM 37.4 °F 33.8 °F 33.8 °F 87% 29.86 in 10.0 mi East 4.6 mph - N/A   Mostly Cloudy
7:55 AM 39.2 °F 35.0 °F 35.6 °F 87% 29.86 in 10.0 mi ESE 5.8 mph - N/A   Overcast
8:15 AM 41.0 °F 38.0 °F 35.6 °F 81% 29.85 in 10.0 mi East 4.6 mph - N/A   Overcast
8:35 AM 42.8 °F 38.0 °F 37.4 °F 81% 29.85 in 10.0 mi ESE 8.1 mph - N/A   Overcast
8:55 AM 42.8 °F 38.6 °F 37.4 °F 81% 29.86 in 10.0 mi SE 6.9 mph - N/A   Mostly Cloudy
9:15 AM 44.6 °F 40.7 °F 37.4 °F 76% 29.85 in 10.0 mi SE 6.9 mph - N/A   Mostly Cloudy
9:35 AM 46.4 °F 41.5 °F 37.4 °F 71% 29.86 in 10.0 mi SSE 10.4 mph - N/A   Overcast
9:55 AM 46.4 °F 41.9 °F 37.4 °F 71% 29.85 in 10.0 mi SSE 9.2 mph - N/A   Light Drizzle
10:15 AM 46.4 °F 41.9 °F 39.2 °F 76% 29.85 in 10.0 mi SSE 9.2 mph - N/A   Mostly Cloudy
10:35 AM 46.4 °F 41.9 °F 39.2 °F 76% 29.84 in 10.0 mi SSE 9.2 mph - N/A   Overcast
10:55 AM 48.2 °F - 39.2 °F 71% 29.83 in 10.0 mi SSE 9.2 mph - N/A   Overcast
11:15 AM 50.0 °F - 41.0 °F 71% 29.83 in 10.0 mi SSE 9.2 mph - N/A   Overcast
11:35 AM 50.0 °F - 41.0 °F 71% 29.81 in 10.0 mi SSE 8.1 mph - N/A   Overcast
11:55 AM 50.0 °F - 42.8 °F 76% 29.81 in 10.0 mi SSE 9.2 mph - N/A   Overcast
12:15 PM 51.8 °F - 42.8 °F 71% 29.82 in 10.0 mi SSE 11.5 mph - N/A   Overcast
12:35 PM 53.6 °F - 44.6 °F 72% 29.83 in 10.0 mi South 15.0 mph 19.6 mph N/A   Overcast
12:55 PM 55.4 °F - 46.4 °F 72% 29.82 in 10.0 mi SSE 12.7 mph - N/A   Mostly Cloudy
1:15 PM 57.2 °F - 46.4 °F 67% 29.78 in 10.0 mi SSE 11.5 mph - N/A   Scattered Clouds
1:35 PM 59.0 °F - 48.2 °F 67% 29.78 in 10.0 mi SSE 10.4 mph - N/A   Scattered Clouds
1:55 PM 59.0 °F - 48.2 °F 67% 29.75 in 10.0 mi SSE 13.8 mph 18.4 mph N/A   Scattered Clouds
2:15 PM 60.8 °F - 48.2 °F 63% 29.74 in 10.0 mi SSE 12.7 mph - N/A   Scattered Clouds
2:35 PM 59.0 °F - 46.4 °F 63% 29.73 in 10.0 mi SSE 15.0 mph 21.9 mph N/A   Mostly Cloudy
2:55 PM 59.0 °F - 46.4 °F 63% 29.74 in 10.0 mi SSE 13.8 mph - N/A   Mostly Cloudy
3:15 PM 59.0 °F - 46.4 °F 63% 29.74 in 10.0 mi SSE 18.4 mph 25.3 mph N/A   Scattered Clouds
3:35 PM 60.8 °F - 44.6 °F 55% 29.74 in 10.0 mi SSE 16.1 mph 23.0 mph N/A   Mostly Cloudy
3:55 PM 59.0 °F - 44.6 °F 59% 29.72 in 10.0 mi SSE 12.7 mph - N/A   Scattered Clouds
4:15 PM 57.2 °F - 44.6 °F 63% 29.71 in 10.0 mi SSE 10.4 mph - N/A   Scattered Clouds
4:35 PM 57.2 °F - 46.4 °F 67% 29.70 in 10.0 mi SSE 17.3 mph 24.2 mph N/A   Scattered Clouds
4:55 PM 59.0 °F - 44.6 °F 59% 29.71 in 10.0 mi SSE 12.7 mph 19.6 mph N/A   Mostly Cloudy
5:15 PM 57.2 °F - 44.6 °F 63% 29.70 in 10.0 mi SSE 10.4 mph - N/A   Overcast
5:35 PM 57.2 °F - 44.6 °F 63% 29.69 in 10.0 mi SSE 10.4 mph 16.1 mph N/A   Overcast
5:55 PM 57.2 °F - 44.6 °F 63% 29.70 in 10.0 mi South 11.5 mph - N/A Rain Light Rain
6:15 PM 55.4 °F - 46.4 °F 72% 29.71 in 10.0 mi South 9.2 mph - N/A   Overcast
6:35 PM 53.6 °F - 46.4 °F 77% 29.71 in 10.0 mi SSE 9.2 mph - N/A Rain Light Rain
6:55 PM 53.6 °F - 46.4 °F 77% 29.71 in 10.0 mi South 12.7 mph 17.3 mph 0.01 in Rain Light Rain
7:15 PM 55.4 °F - 44.6 °F 67% 29.70 in 10.0 mi SSE 15.0 mph - N/A   Light Drizzle
7:35 PM 55.4 °F - 44.6 °F 67% 29.70 in 10.0 mi South 21.9 mph 28.8 mph N/A   Mostly Cloudy
7:55 PM 55.4 °F - 44.6 °F 67% 29.70 in 10.0 mi South 16.1 mph 27.6 mph N/A   Mostly Cloudy
8:15 PM 53.6 °F - 44.6 °F 72% 29.70 in 10.0 mi SSE 15.0 mph 23.0 mph N/A   Mostly Cloudy
8:35 PM 53.6 °F - 44.6 °F 72% 29.70 in 10.0 mi SSE 11.5 mph - N/A   Mostly Cloudy
8:55 PM 53.6 °F - 44.6 °F 72% 29.70 in 10.0 mi South 10.4 mph - N/A   Light Drizzle
9:15 PM 51.8 °F - 44.6 °F 76% 29.69 in 10.0 mi SSE 10.4 mph - N/A   Overcast
9:35 PM 51.8 °F - 44.6 °F 76% 29.69 in 10.0 mi South 15.0 mph 19.6 mph N/A   Overcast
9:55 PM 53.6 °F - 46.4 °F 77% 29.70 in 10.0 mi South 18.4 mph 24.2 mph N/A   Overcast
10:15 PM 53.6 °F - 46.4 °F 77% 29.70 in 10.0 mi South 19.6 mph 33.4 mph N/A   Overcast
10:35 PM 51.8 °F - 46.4 °F 82% 29.70 in 10.0 mi South 24.2 mph 33.4 mph N/A   Overcast
10:55 PM 51.8 °F - 48.2 °F 88% 29.70 in 7.0 mi South 23.0 mph 34.5 mph N/A Rain Rain
11:15 PM 51.8 °F - 50.0 °F 94% 29.69 in 7.0 mi South 19.6 mph 27.6 mph N/A   Drizzle
11:35 PM 51.8 °F - 50.0 °F 94% 29.68 in 10.0 mi South 16.1 mph 24.2 mph N/A   Overcast
11:55 PM 51.8 °F - 50.0 °F 94% 29.69 in 10.0 mi South 12.7 mph 18.4 mph N/A   Overcast
12:15 AM 51.8 °F - 50.0 °F 94% 29.68 in 7.0 mi South 13.8 mph 20.7 mph N/A Rain Rain
12:35 AM 51.8 °F - 50.0 °F 94% 29.67 in 5.0 mi South 12.7 mph - N/A Rain Rain
12:55 AM 50.0 °F - 50.0 °F 100% 29.68 in 5.0 mi South 11.5 mph - N/A Rain Light Rain